Date String (YYYY-MM-DD hh:mm:ss) UTC,Instrument flags,absolute air pressure of the measurement (hPa),sample flow rate (lpm),inlet stack bypass flow (lpm),air temperature of the measurement (°C),ambient temperature measured by the external sensor (°C),aerosol sample conditioner tube jacket temperature (°C),OPC LED temperature (°C),internal box temperature (°C),relative humidity of the measurement (%),span deviation,mass concentration of particles derived from Lorenz-Mie calculation of OPC scattering (μg/m³),mass concentration of particles derived from Lorenz-Mie calculation of OPC scattering (μg/m³),mass concentration of particles derived from Lorenz-Mie calculation of OPC scattering (μg/m³)
DateTimeUTC,F1_M11,P_M11,Q1_M11,Q2_M11,T1_M11,T2_M11,T3_M11,T4_M11,T5_M11,U1_M11,ZSPAN_M11,X2_M11,X0_M11,X1_M11
2023-08-30 15:00:00,SystemResetWarning,0833.3,5.00,000.00,028.4,027.2,000.0,036.9,030.2,28.7,0000.1,0005.80,0010.74,0005.31
2023-08-30 15:01:00,SystemResetWarning,0832.9,5.00,000.00,028.5,026.7,000.0,036.8,030.1,28.9,0000.5,0005.84,0010.65,0005.30
2023-08-30 15:02:00,SystemResetWarning,0833.3,5.00,000.00,028.4,025.0,000.0,036.7,029.8,30.0,0000.4,0005.83,0010.32,0005.28
2023-08-30 15:03:00,SystemResetWarning,0832.8,5.01,000.00,028.3,024.3,000.0,036.6,029.6,30.5,0000.5,0005.82,0009.77,0005.27
2023-08-30 15:04:00,SystemResetWarning,0832.9,5.00,000.00,028.2,024.5,000.0,036.6,029.4,29.4,0000.6,0005.81,0009.69,0005.25
2023-08-30 15:05:00,SystemResetWarning,0832.9,5.00,000.00,028.1,024.8,000.0,036.7,029.4,29.5,0000.4,0005.81,0009.72,0005.23
2023-08-30 15:06:00,SystemResetWarning,0833.2,5.01,000.00,028.1,025.3,000.0,036.7,029.5,28.4,0000.5,0005.78,0009.55,0005.21
2023-08-30 15:07:00,SystemResetWarning,0833.2,5.00,000.00,028.1,025.6,000.0,036.7,029.7,27.9,0000.2,0005.78,0009.64,0005.19
2023-08-30 15:08:00,SystemResetWarning,0832.9,5.00,000.00,028.1,026.0,000.0,036.7,029.8,28.8,0000.2,0005.77,0009.81,0005.17
2023-08-30 15:09:00,SystemResetWarning,0832.9,4.99,000.00,028.2,026.3,000.0,036.7,029.8,28.9,0000.2,0005.75,0009.91,0005.17
2023-08-30 15:10:00,SystemResetWarning,0832.9,5.01,000.00,028.2,026.5,000.0,036.7,029.9,29.0,0000.6,0005.72,0010.28,0005.16
2023-08-30 15:11:00,SystemResetWarning,0832.9,5.00,000.00,028.2,026.8,000.0,036.8,030.0,29.5,0000.9,0005.71,0010.30,0005.15
2023-08-30 15:12:00,SystemResetWarning,0832.9,4.99,000.00,028.3,026.9,000.0,036.8,030.0,28.3,0001.0,0005.65,0010.09,0005.12
2023-08-30 15:13:00,SystemResetWarning,0833.0,4.99,000.00,028.3,027.1,000.0,036.8,030.1,29.6,0001.1,0005.65,0010.07,0005.12
2023-08-30 15:14:00,SystemResetWarning,0832.9,5.00,000.00,028.4,027.2,000.0,036.8,030.1,29.0,0001.2,0005.66,0010.15,0005.11
2023-08-30 15:15:00,SystemResetWarning,0832.9,5.00,000.00,028.4,026.6,000.0,036.7,030.0,29.1,0000.5,0005.63,0010.02,0005.10
2023-08-30 15:16:00,SystemResetWarning,0832.9,5.01,000.00,028.3,025.0,000.0,036.6,029.7,29.5,0000.6,0005.62,0009.96,0005.09
2023-08-30 15:17:00,SystemResetWarning,0833.4,5.00,000.00,028.2,024.6,000.0,036.6,029.5,29.3,0001.2,0005.62,0009.99,0005.08
2023-08-30 15:18:00,SystemResetWarning,0833.3,5.01,000.00,028.2,024.8,000.0,036.6,029.4,30.2,0001.7,0005.58,0009.83,0005.06
2023-08-30 15:19:00,SystemResetWarning,0833.3,4.99,000.00,028.1,025.1,000.0,036.6,029.5,28.5,0002.4,0005.57,0009.46,0005.06
2023-08-30 15:20:00,SystemResetWarning,0832.9,4.98,000.00,028.1,025.5,000.0,036.7,029.7,28.9,0002.6,0005.55,0009.12,0005.04
2023-08-30 15:21:00,SystemResetWarning,0833.0,5.00,000.00,028.2,025.9,000.0,036.7,029.8,30.8,0002.6,0005.53,0008.60,0005.03
2023-08-30 15:22:00,SystemResetWarning,0833.0,5.02,000.00,028.2,026.3,000.0,036.7,029.9,30.8,0002.1,0005.51,0008.55,0005.02
2023-08-30 15:23:00,SystemResetWarning,0832.9,5.00,000.00,028.2,026.6,000.0,036.7,030.0,31.1,0002.1,0005.51,0009.15,0005.02
2023-08-30 15:24:00,SystemResetWarning,0832.9,5.00,000.00,028.3,026.8,000.0,036.7,030.0,30.2,0002.1,0005.48,0009.09,0005.00
2023-08-30 15:25:00,SystemResetWarning,0833.0,4.99,000.00,028.3,027.0,000.0,036.7,030.1,30.3,0001.8,0005.49,0009.05,0005.01
2023-08-30 15:26:00,SystemResetWarning,0832.9,5.00,000.00,028.4,026.7,000.0,036.7,030.0,30.1,0002.2,0005.53,0009.33,0005.02
2023-08-30 15:27:00,SystemResetWarning,0833.0,5.00,000.00,028.3,025.4,000.0,036.6,029.6,31.3,0002.0,0005.51,0009.28,0005.02
2023-08-30 15:28:00,SystemResetWarning,0833.4,5.00,000.00,028.2,024.6,000.0,036.5,029.5,30.9,0001.4,0005.50,0009.97,0005.04
2023-08-30 15:29:00,SystemResetWarning,0833.4,5.01,000.00,028.1,024.8,000.0,036.5,029.4,31.1,0001.1,0005.54,0010.15,0005.06
2023-08-30 15:30:00,SystemResetWarning,0833.0,5.01,000.00,028.1,025.1,000.0,036.5,029.4,30.8,0000.4,0005.54,0010.24,0005.05
2023-08-30 15:31:00,SystemResetWarning,0833.2,4.99,000.00,028.1,025.5,000.0,036.5,029.6,30.5,0000.4,0005.54,0010.34,0005.05
2023-08-30 15:32:00,SystemResetWarning,0833.3,5.00,000.00,028.1,025.9,000.0,036.5,029.7,30.8,0000.9,0005.60,0010.74,0005.07
2023-08-30 15:33:00,SystemResetWarning,0833.3,5.01,000.00,028.1,026.2,000.0,036.6,029.8,30.6,0000.6,0005.64,0010.92,0005.08
2023-08-30 15:34:00,SystemResetWarning,0832.9,5.00,000.00,028.2,026.5,000.0,036.6,029.9,30.6,0000.7,0005.64,0010.85,0005.07
2023-08-30 15:35:00,SystemResetWarning,0832.9,5.00,000.00,028.2,026.8,000.0,036.6,030.0,29.8,0000.3,0005.64,0010.83,0005.07
2023-08-30 15:36:00,SystemResetWarning,0832.9,5.00,000.00,028.3,026.9,000.0,036.6,030.0,29.1,0000.3,0005.61,0010.84,0005.07
2023-08-30 15:37:00,SystemResetWarning,0833.0,4.98,000.00,028.3,026.3,000.0,036.6,029.8,29.0,0000.5,0005.58,0010.81,0005.06
2023-08-30 15:38:00,SystemResetWarning,0832.9,5.01,000.00,028.2,024.9,000.0,036.5,029.4,30.3,0000.5,0005.60,0010.86,0005.08
2023-08-30 15:39:00,SystemResetWarning,0832.9,5.01,000.00,028.1,024.6,000.0,036.4,029.4,31.1,0000.8,0005.63,0010.29,0005.10
2023-08-30 15:40:00,SystemResetWarning,0833.2,4.99,000.00,028.0,024.8,000.0,036.4,029.3,31.6,0000.9,0005.62,0010.15,0005.08
2023-08-30 15:41:00,SystemResetWarning,0833.0,5.00,000.00,028.0,025.1,000.0,036.4,029.4,31.9,0000.8,0005.61,0010.03,0005.08
2023-08-30 15:42:00,SystemResetWarning,0832.8,5.01,000.00,028.0,025.5,000.0,036.5,029.5,31.6,0000.4,0005.58,0009.95,0005.08
2023-08-30 15:43:00,SystemResetWarning,0832.8,5.01,000.00,028.0,025.9,000.0,036.5,029.6,31.8,-000.3,0005.52,0009.46,0005.07
2023-08-30 15:44:00,SystemResetWarning,0832.8,4.99,000.00,028.0,026.2,000.0,036.5,029.7,31.2,-000.2,0005.45,0009.67,0005.04
2023-08-30 15:45:00,SystemResetWarning,0832.8,5.00,000.00,028.1,026.4,000.0,036.5,029.8,31.1,-000.2,0005.42,0009.25,0005.03
2023-08-30 15:46:00,SystemResetWarning,0833.0,5.00,000.00,028.1,026.7,000.0,036.5,029.9,30.4,0000.0,0005.40,0009.05,0005.02
2023-08-30 15:47:00,SystemResetWarning,0833.4,5.00,000.00,028.2,026.9,000.0,036.5,029.9,30.2,0000.5,0005.42,0008.98,0005.02
2023-08-30 15:48:00,SystemResetWarning,0833.3,5.00,000.00,028.2,027.0,000.0,036.6,030.0,29.6,0000.4,0005.42,0008.86,0005.01
2023-08-30 15:49:00,SystemResetWarning,0833.1,5.01,000.00,028.3,027.2,000.0,036.6,030.1,29.3,0000.0,0005.38,0008.79,0004.98
2023-08-30 15:50:00,SystemResetWarning,0833.2,5.00,000.00,028.3,027.2,000.0,036.6,030.1,28.8,-000.0,0005.34,0008.75,0004.96
2023-08-30 15:51:00,SystemResetWarning,0833.4,4.98,000.00,028.3,026.3,000.0,036.6,029.8,28.3,0000.5,0005.32,0008.93,0004.96
2023-08-30 15:52:00,SystemResetWarning,0833.1,5.01,000.00,028.2,025.0,000.0,036.5,029.4,28.2,0001.2,0005.34,0008.99,0004.96
2023-08-30 15:53:00,SystemResetWarning,0832.9,5.01,000.00,028.2,024.7,000.0,036.4,029.4,28.4,0001.6,0005.36,0008.98,0004.96
2023-08-30 15:54:00,SystemResetWarning,0833.3,5.01,000.00,028.1,024.9,000.0,036.4,029.3,28.7,0001.4,0005.33,0008.92,0004.94
2023-08-30 15:55:00,SystemResetWarning,0833.2,5.00,000.00,028.0,025.3,000.0,036.5,029.5,28.3,0001.1,0005.33,0008.57,0004.93
2023-08-30 15:56:00,SystemResetWarning,0832.9,5.00,000.00,028.1,025.7,000.0,036.5,029.6,27.5,0001.0,0005.34,0008.53,0004.94
2023-08-30 15:57:00,SystemResetWarning,0833.0,5.00,000.00,028.1,026.0,000.0,036.5,029.7,28.0,0001.3,0005.35,0008.56,0004.94
2023-08-30 15:58:00,SystemResetWarning,0832.9,4.99,000.00,028.1,026.3,000.0,036.5,029.8,28.7,0000.7,0005.33,0008.54,0004.94
2023-08-30 15:59:00,SystemResetWarning,0832.9,5.00,000.00,028.2,026.6,000.0,036.6,029.9,28.6,0000.3,0005.34,0008.55,0004.94
